Weather in Orekhovno

Russia / Pskov Oblast     58°37′08″N   28°58′15″E
temp.,
°C
wind,
m/s
gust,
m/s
humid.,
%
clouds,
%
prec.,
mm/h
press.,
hPa
HPBL,
m
17 may, mon
mon1700:00+11ese259630 0.0 101195
03:00+11ese39965 0.0 1011187
06:00+12se3109251 0.0 1011271
09:00+17ese4870100 0.0 1010460
12:00+21se5957100 0.0 10091509
15:00+21se41065100 1.1 10081454
18:00+19se4873100 1.1 1007337
21:00+15nnw3696100 2.3 1005194
18 may, tue
tue1800:00+14n2599100 7.8 1004200
03:00+14ne13100100 9.0 1003144
06:00+15ese2699100 1.3 1002268
09:00+17se3895100 2.3 1002620
12:00+18sse3793100 0.3 1003644
15:00+17sw1294100 0.9 1003324
18:00+16wnw2396100 0.8 1003267
21:00+15nne2499100 2.4 1003180
19 may, wed
wed1900:00+14ese31098100 1.7 1003400
03:00+14ese3998100 1.9 1002338
06:00+14sse4109773 0.0 1002445
09:00+17s478495 0.0 1003708
12:00+20ssw4562100 0.1 10031364
15:00+19sw3481100 1.6 1004808
18:00+15w2592100 3.0 1004288
21:00+12wnw3693100 3.5 1006290
20 may, thu
thu2000:00+11wnw2597100 0.0 1007218
03:00+10nnw3694100 0.0 1008287
06:00+9nnw2794100 0.0 1009340
09:00+13n4777100 0.0 1008522
12:00+17nne4560100 0.0 1007997
15:00+12n41093100 1.3 1006571
18:00+12nnw51195100 1.0 1003532
21:00+12n61498100 13.2 999710
21 may, fri
fri2100:00+12ene41099100 1.4 998493
03:00+11ese399987 1.4 998392
06:00+11ese2799100 0.2 997446
09:00+11sse4996100 2.1 997527
12:00+11se3897100 0.3 998554
15:00+11se3797100 0.7 998430
18:00+11sse2698100 1.7 998390
21:00+9wsw51098100 3.9 999833